GAP2993 RPLL-RPMZ

Flight info

Callsign GAP2993
Flight time 0h 48m
Altitude 33000
Route VERDE2R VERDE A461 TINDO TINDO1W
Aircraft A320/M-SDE3FGHIRWY/LB1

Departure

Time 2026-04-22 06:35
Airport Ninoy Aquino International Airport (RPLL)

Arrival

Time 2026-04-22 07:23
Airport Zamboanga International Airport (RPMZ)
Time Latitude Longitude Altitude Speed Heading
2026-04-22 06:24 14.50953 121.01517 69 ft 0 kts 351°
2026-04-22 06:26 14.50942 121.01519 59 ft 2 kts 351°
2026-04-22 06:26 14.50926 121.01521 64 ft 2 kts 351°
2026-04-22 06:26 14.50909 121.01524 59 ft 2 kts 337°
2026-04-22 06:27 14.50896 121.01535 63 ft 2 kts 308°
2026-04-22 06:27 14.50889 121.01550 61 ft 2 kts 274°
2026-04-22 06:27 14.50890 121.01565 59 ft 1 kts 245°
2026-04-22 06:27 14.50892 121.01568 59 ft 0 kts 240°
2026-04-22 06:28 14.50884 121.01554 62 ft 8 kts 240°
2026-04-22 06:29 14.50858 121.01509 60 ft 7 kts 240°
2026-04-22 06:29 14.50821 121.01443 63 ft 11 kts 240°
2026-04-22 06:29 14.50786 121.01379 60 ft 10 kts 240°
2026-04-22 06:29 14.50750 121.01322 65 ft 9 kts 220°
2026-04-22 06:30 14.50701 121.01317 65 ft 8 kts 174°
2026-04-22 06:30 14.50648 121.01282 64 ft 13 kts 237°
2026-04-22 06:30 14.50602 121.01199 67 ft 13 kts 241°
2026-04-22 06:30 14.50543 121.01093 67 ft 20 kts 239°
2026-04-22 06:31 14.50471 121.00964 65 ft 21 kts 240°
2026-04-22 06:31 14.50396 121.00829 68 ft 22 kts 240°
2026-04-22 06:31 14.50318 121.00690 66 ft 22 kts 243°
2026-04-22 06:31 14.50244 121.00554 63 ft 21 kts 241°
2026-04-22 06:32 14.50167 121.00419 62 ft 23 kts 240°
2026-04-22 06:32 14.50087 121.00275 63 ft 24 kts 240°
2026-04-22 06:32 14.50003 121.00124 63 ft 25 kts 241°
2026-04-22 06:32 14.49928 120.99991 63 ft 12 kts 238°
2026-04-22 06:33 14.49869 120.99978 69 ft 9 kts 140°
2026-04-22 06:33 14.49812 121.00011 64 ft 10 kts 129°
2026-04-22 06:33 14.49824 121.00076 66 ft 5 kts 61°
2026-04-22 06:33 14.49838 121.00102 64 ft 4 kts 61°
2026-04-22 06:34 14.49857 121.00138 61 ft 13 kts 60°
2026-04-22 06:34 14.50003 121.00406 60 ft 77 kts 60°
2026-04-22 06:34 14.50367 121.01061 65 ft 131 kts 61°
2026-04-22 06:34 14.50884 121.01997 220 ft 159 kts 63°
2026-04-22 06:35 14.51438 121.02977 870 ft 160 kts 64°
2026-04-22 06:35 14.52004 121.03989 1454 ft 166 kts 64°
2026-04-22 06:35 14.52595 121.05039 1988 ft 173 kts 63°
2026-04-22 06:35 14.53215 121.06162 2338 ft 187 kts 63°
2026-04-22 06:36 14.53885 121.07380 2653 ft 203 kts 63°
2026-04-22 06:36 14.54614 121.08702 2998 ft 221 kts 63°
2026-04-22 06:36 14.55411 121.10142 3394 ft 240 kts 63°
2026-04-22 06:36 14.56229 121.11709 3904 ft 255 kts 71°
2026-04-22 06:37 14.56474 121.13517 4654 ft 258 kts 95°
2026-04-22 06:37 14.55970 121.15297 5403 ft 263 kts 119°
2026-04-22 06:37 14.54735 121.16694 6176 ft 269 kts 145°
2026-04-22 06:37 14.52967 121.17363 6847 ft 278 kts 173°
2026-04-22 06:38 14.51016 121.17214 7565 ft 285 kts 186°
2026-04-22 06:38 14.49031 121.16922 8308 ft 290 kts 186°
2026-04-22 06:38 14.47050 121.16633 9062 ft 293 kts 186°
2026-04-22 06:38 14.44994 121.16341 9818 ft 297 kts 186°
2026-04-22 06:39 14.42928 121.16051 10370 ft 306 kts 186°
2026-04-22 06:39 14.40757 121.15748 10704 ft 323 kts 186°
2026-04-22 06:39 14.38502 121.15437 11016 ft 339 kts 186°
2026-04-22 06:39 14.36130 121.15108 11482 ft 348 kts 187°
2026-04-22 06:40 14.33683 121.14767 12118 ft 352 kts 187°
2026-04-22 06:40 14.31278 121.14432 12752 ft 355 kts 187°
2026-04-22 06:40 14.28782 121.14082 13387 ft 359 kts 187°
2026-04-22 06:40 14.26295 121.13733 13954 ft 362 kts 187°
2026-04-22 06:41 14.23782 121.13380 14491 ft 366 kts 188°
2026-04-22 06:41 14.21288 121.13031 15016 ft 369 kts 188°
2026-04-22 06:41 14.18733 121.12677 15547 ft 372 kts 188°
2026-04-22 06:41 14.16164 121.12319 16072 ft 375 kts 188°
2026-04-22 06:42 14.13571 121.11957 16587 ft 377 kts 188°
2026-04-22 06:42 14.10953 121.11590 17103 ft 380 kts 188°
2026-04-22 06:42 14.08325 121.11220 17608 ft 383 kts 188°
2026-04-22 06:42 14.05668 121.10850 18113 ft 386 kts 188°
2026-04-22 06:43 14.03000 121.10482 18546 ft 389 kts 188°
2026-04-22 06:43 14.00311 121.10110 18991 ft 391 kts 188°
2026-04-22 06:43 13.97604 121.09735 19447 ft 393 kts 188°
2026-04-22 06:43 13.94887 121.09359 19907 ft 395 kts 188°
2026-04-22 06:44 13.92154 121.08981 20365 ft 397 kts 188°
2026-04-22 06:44 13.89411 121.08601 20824 ft 399 kts 189°
2026-04-22 06:44 13.86649 121.08214 21286 ft 401 kts 189°
2026-04-22 06:44 13.83889 121.07826 21741 ft 403 kts 189°
2026-04-22 06:45 13.81086 121.07433 22191 ft 405 kts 189°
2026-04-22 06:45 13.78285 121.07044 22634 ft 408 kts 189°
2026-04-22 06:45 13.75261 121.06625 23096 ft 410 kts 189°
2026-04-22 06:45 13.69648 121.05851 23825 ft 415 kts 189°
2026-04-22 06:46 13.63821 121.05045 24516 ft 419 kts 189°
2026-04-22 06:46 13.58007 121.04235 25155 ft 423 kts 189°
2026-04-22 06:46 13.52229 121.03430 25788 ft 427 kts 189°
2026-04-22 06:46 13.46263 121.03205 26379 ft 433 kts 181°
2026-04-22 06:47 13.40129 121.03285 26962 ft 437 kts 181°
2026-04-22 06:47 13.34021 121.03347 27520 ft 441 kts 181°
2026-04-22 06:47 13.27951 121.03399 28067 ft 444 kts 181°
2026-04-22 06:47 13.21751 121.03458 28621 ft 448 kts 181°
2026-04-22 06:48 13.15487 121.03522 29157 ft 451 kts 180°
2026-04-22 06:48 13.09179 121.03588 29661 ft 455 kts 180°
2026-04-22 06:48 13.02824 121.03654 30117 ft 459 kts 180°
2026-04-22 06:48 12.96431 121.03715 30518 ft 461 kts 181°
2026-04-22 06:49 12.89996 121.03772 30912 ft 463 kts 181°
2026-04-22 06:49 12.83543 121.03843 31283 ft 465 kts 181°
2026-04-22 06:49 12.77072 121.03911 31827 ft 463 kts 181°
2026-04-22 06:49 12.74899 121.03932 32011 ft 463 kts 181°
2026-04-22 06:50 12.69203 121.03677 32495 ft 460 kts 183°
2026-04-22 06:50 12.62638 121.03789 32861 ft 458 kts 179°
2026-04-22 06:50 12.56439 121.04075 32867 ft 441 kts 180°
2026-04-22 06:51 12.50292 121.04229 32856 ft 441 kts 181°
2026-04-22 06:51 12.38011 121.04293 32854 ft 441 kts 181°
2026-04-22 06:52 12.25860 121.06234 32852 ft 443 kts 171°
2026-04-22 06:52 12.15779 121.08155 32853 ft 442 kts 171°
2026-04-22 06:53 11.89937 121.13027 32866 ft 442 kts 171°
2026-04-22 06:54 11.77857 121.15303 32869 ft 441 kts 171°
2026-04-22 06:54 11.65787 121.17586 32868 ft 441 kts 171°
2026-04-22 06:55 11.53745 121.19849 32867 ft 440 kts 171°
2026-04-22 06:55 11.42306 121.22001 32868 ft 440 kts 171°
2026-04-22 06:56 11.30269 121.24274 32863 ft 441 kts 171°
2026-04-22 06:56 11.18211 121.26536 32863 ft 441 kts 171°
2026-04-22 06:57 11.06136 121.28808 32863 ft 441 kts 171°
2026-04-22 06:57 10.94073 121.31075 32861 ft 441 kts 170°
2026-04-22 06:58 10.82024 121.33386 32862 ft 440 kts 170°
2026-04-22 06:58 10.69992 121.35693 32857 ft 440 kts 170°
2026-04-22 06:59 10.57960 121.37992 32851 ft 440 kts 170°
2026-04-22 06:59 10.45926 121.40269 32847 ft 439 kts 171°
2026-04-22 07:00 10.33897 121.42497 32844 ft 439 kts 171°
2026-04-22 07:00 10.21903 121.44736 32846 ft 438 kts 171°
2026-04-22 07:01 10.09900 121.46976 32838 ft 438 kts 171°
2026-04-22 07:01 9.97919 121.49200 32842 ft 437 kts 171°
2026-04-22 07:02 9.85948 121.51436 32837 ft 437 kts 171°
2026-04-22 07:02 9.73978 121.53647 32834 ft 437 kts 171°
2026-04-22 07:03 9.64038 121.55497 32832 ft 437 kts 171°
2026-04-22 07:03 9.50037 121.58075 32838 ft 437 kts 171°
2026-04-22 07:04 9.40078 121.59919 32847 ft 437 kts 171°
2026-04-22 07:04 9.28117 121.62123 32844 ft 437 kts 171°
2026-04-22 07:05 9.16147 121.64337 32847 ft 437 kts 171°
2026-04-22 07:05 9.04175 121.66536 32842 ft 437 kts 171°
2026-04-22 07:06 8.92202 121.68753 32846 ft 437 kts 170°
2026-04-22 07:06 8.78295 121.71314 32852 ft 437 kts 170°
2026-04-22 07:06 8.74263 121.72055 32605 ft 435 kts 170°
2026-04-22 07:07 8.68341 121.73151 31647 ft 427 kts 170°
2026-04-22 07:07 8.62622 121.74211 30770 ft 421 kts 170°
2026-04-22 07:07 8.56819 121.75285 29894 ft 417 kts 169°
2026-04-22 07:07 8.51134 121.76334 28896 ft 412 kts 169°
2026-04-22 07:08 8.45543 121.77361 27940 ft 406 kts 169°
2026-04-22 07:08 8.40100 121.78370 27010 ft 400 kts 169°
2026-04-22 07:08 8.34652 121.79377 26098 ft 395 kts 168°
2026-04-22 07:08 8.29291 121.80369 25235 ft 390 kts 168°
2026-04-22 07:09 8.23986 121.81350 24388 ft 385 kts 168°
2026-04-22 07:09 8.18750 121.82313 23569 ft 380 kts 168°
2026-04-22 07:09 8.13576 121.83260 22627 ft 375 kts 168°
2026-04-22 07:09 8.08479 121.84200 21685 ft 370 kts 168°
2026-04-22 07:10 8.03454 121.85130 20771 ft 365 kts 168°
2026-04-22 07:10 7.98479 121.86048 19881 ft 361 kts 169°
2026-04-22 07:10 7.93568 121.86954 19013 ft 357 kts 169°
2026-04-22 07:10 7.88699 121.87849 18179 ft 354 kts 169°
2026-04-22 07:11 7.83865 121.88737 17223 ft 351 kts 170°
2026-04-22 07:11 7.79081 121.89617 16298 ft 349 kts 170°
2026-04-22 07:11 7.74313 121.90497 15396 ft 347 kts 170°
2026-04-22 07:11 7.69587 121.91378 14518 ft 344 kts 170°
2026-04-22 07:12 7.64882 121.92245 13665 ft 342 kts 170°
2026-04-22 07:12 7.60220 121.93100 12721 ft 338 kts 170°
2026-04-22 07:12 7.55616 121.93946 11789 ft 334 kts 169°
2026-04-22 07:12 7.51072 121.94784 10887 ft 330 kts 169°
2026-04-22 07:13 7.46596 121.95605 10019 ft 325 kts 169°
2026-04-22 07:13 7.42178 121.96419 9089 ft 320 kts 169°
2026-04-22 07:13 7.37847 121.97218 8158 ft 314 kts 169°
2026-04-22 07:13 7.33675 121.98382 7201 ft 309 kts 151°
2026-04-22 07:14 7.30427 122.01064 6422 ft 300 kts 135°
2026-04-22 07:14 7.27490 122.03881 5936 ft 280 kts 136°
2026-04-22 07:14 7.24718 122.06513 5451 ft 273 kts 136°
2026-04-22 07:14 7.22143 122.08959 4996 ft 271 kts 136°
2026-04-22 07:15 7.19412 122.11560 4514 ft 269 kts 136°
2026-04-22 07:15 7.16702 122.14140 4032 ft 267 kts 135°
2026-04-22 07:15 7.14005 122.16713 3827 ft 267 kts 135°
2026-04-22 07:15 7.11295 122.19299 3846 ft 269 kts 135°
2026-04-22 07:16 7.08572 122.21893 3728 ft 270 kts 136°
2026-04-22 07:16 7.05926 122.24411 3469 ft 250 kts 136°
2026-04-22 07:16 7.03455 122.26767 2828 ft 243 kts 136°
2026-04-22 07:16 7.01021 122.29092 2529 ft 245 kts 136°
2026-04-22 07:17 6.99095 122.30345 2521 ft 244 kts 161°
2026-04-22 07:17 6.97435 122.30644 2533 ft 236 kts 180°
2026-04-22 07:17 6.95872 122.30420 2535 ft 221 kts 197°
2026-04-22 07:17 6.94429 122.29821 2541 ft 225 kts 204°
2026-04-22 07:18 6.93008 122.29161 2529 ft 225 kts 210°
2026-04-22 07:18 6.91819 122.28140 2536 ft 225 kts 232°
2026-04-22 07:18 6.91096 122.26753 2532 ft 225 kts 255°
2026-04-22 07:18 6.90935 122.25220 2538 ft 223 kts 275°
2026-04-22 07:19 6.91049 122.23703 2534 ft 206 kts 274°
2026-04-22 07:19 6.91145 122.22317 2528 ft 190 kts 274°
2026-04-22 07:19 6.91227 122.21071 2548 ft 166 kts 274°
2026-04-22 07:19 6.91299 122.19969 2555 ft 151 kts 274°
2026-04-22 07:20 6.91368 122.18931 2434 ft 150 kts 274°
2026-04-22 07:20 6.91439 122.17891 2203 ft 148 kts 274°
2026-04-22 07:20 6.91509 122.16862 1995 ft 147 kts 274°
2026-04-22 07:20 6.91578 122.15835 1794 ft 146 kts 274°
2026-04-22 07:21 6.91646 122.14820 1603 ft 145 kts 274°
2026-04-22 07:21 6.91714 122.13809 1395 ft 144 kts 274°
2026-04-22 07:21 6.91782 122.12802 1205 ft 144 kts 274°
2026-04-22 07:21 6.91851 122.11799 1016 ft 143 kts 274°
2026-04-22 07:22 6.91919 122.10809 827 ft 141 kts 273°
2026-04-22 07:22 6.91979 122.09935 637 ft 140 kts 276°
2026-04-22 07:22 6.92026 122.08969 522 ft 138 kts 277°
2026-04-22 07:22 6.92105 122.08012 250 ft 136 kts 277°
2026-04-22 07:23 6.92170 122.07061 57 ft 137 kts 277°
2026-04-22 07:23 6.92229 122.06245 37 ft 113 kts 267°
2026-04-22 07:23 6.92263 122.05708 37 ft 58 kts 274°
2026-04-22 07:23 6.92281 122.05396 37 ft 30 kts 275°
2026-04-22 07:24 6.92273 122.05270 37 ft 11 kts 258°
2026-04-22 07:24 6.92288 122.05252 35 ft 1 kts 16°
2026-04-22 07:24 6.92287 122.05294 36 ft 13 kts 95°
2026-04-22 07:24 6.92269 122.05430 37 ft 26 kts 99°
2026-04-22 07:25 6.92261 122.05626 36 ft 29 kts 90°
2026-04-22 07:25 6.92251 122.05817 36 ft 22 kts 93°
2026-04-22 07:25 6.92243 122.05936 36 ft 15 kts 95°
2026-04-22 07:25 6.92191 122.06008 36 ft 12 kts 140°
2026-04-22 07:26 6.92151 122.06052 36 ft 7 kts 112°
2026-04-22 07:26 6.92144 122.06096 37 ft 6 kts 94°
2026-04-22 07:26 6.92142 122.06131 37 ft 4 kts 94°
2026-04-22 07:26 6.92140 122.06158 37 ft 3 kts 93°
2026-04-22 07:27 6.92139 122.06181 37 ft 6 kts 94°
2026-04-22 07:27 6.92123 122.06209 37 ft 4 kts 154°
2026-04-22 07:27 6.92101 122.06222 37 ft 4 kts 149°
2026-04-22 07:27 6.92080 122.06233 37 ft 3 kts 154°
2026-04-22 07:28 6.92052 122.06247 36 ft 0 kts 153°